Voltar ao catálogo

STARLINK-36330

AtivoComunicaçõesSSO
NORAD 67737·PAYLOAD·🇺🇸 United States

Lançado Feb 11, 2026 de Vandenberg Space Force Base

Loading…

Próximas Passagens (próximas 24 horas)

TLE

AtualizadoSource: CelesTrak SupGP

Época: Sep 15, 2026, 04:23 UTC

1 67737C 26026S   26258.18312500 -.00040540  00000+0 -12585-2 0  2584
2 67737  97.2850 310.1197 0000981  89.5460  54.3182 15.33459060    15

Acompanhe STARLINK-36330 em tempo real com AllMySat

Download on the App Store